Tracking 28052 objects as of 22-Sep-2023
HD Live streaming from Space Station
objects crossing your sky now

OBJECT A

Track OBJECT A now!
10-day predictions


NORAD ID: 53367
Int'l Code: 2022-095A
Perigee: 405.3 km
Apogee: 476.2 km
Inclination: 97.4 °
Period: 93.3 minutes
Semi major axis: 6811 km
RCS: Unknown
Launch date: August 9, 2022
Source: People's Republic of China (PRC)
Launch site: Jiuquan Satellite Launch Center, China (JSC)
Your satellite tracking list
Your tracking list is empty




NASA's NSSDC Master Catalog

Two Line Element Set (TLE):
1 53367U 22095A   23265.10965918  .00054351  00000-0  11207-2 0  9990
2 53367  97.3668 342.9729 0052026  62.4790 298.1731 15.44229383 62611
Source of the keplerian elements: AFSPC